CST,Max TemperatureF,Mean TemperatureF,Min TemperatureF,Max Dew PointF,MeanDew PointF,Min DewpointF,Max Humidity, Mean Humidity, Min Humidity, Max Sea Level PressureIn, Mean Sea Level PressureIn, Min Sea Level PressureIn, Max VisibilityMiles, Mean VisibilityMiles, Min VisibilityMiles, Max Wind SpeedMPH, Mean Wind SpeedMPH, Max Gust SpeedMPH,PrecipitationIn, CloudCover, Events, WindDirDegrees
2013-11-1,69,56,43,42,37,31,86,56,25,30.18,29.96,29.80,10,10,10,23,12,33,0.00,0,,341
2013-11-2,64,50,39,33,29,25,65,46,25,30.36,30.24,30.15,10,10,9,13,9,,0.00,0,,324
2013-11-3,66,55,44,41,34,32,65,49,28,30.13,29.97,29.84,10,10,10,37,21,46,0.00,1,,170
2013-11-4,66,58,50,54,47,41,89,69,47,30.03,29.94,29.83,10,10,10,26,17,31,0.00,3,,167
2013-11-5,66,56,44,63,56,39,100,92,80,30.09,29.94,29.83,10,7,0,33,18,41,0.90,8,Fog-Rain-Thunderstorm,175
2013-11-6,57,47,37,37,33,26,86,67,30,30.41,30.29,30.12,10,10,10,22,16,29,0.00,0,,351
2013-11-7,64,50,37,41,34,31,79,59,30,30.49,30.41,30.33,10,9,4,21,11,25,0.00,0,,216
2013-11-8,62,50,39,40,33,28,74,54,30,30.30,30.12,29.98,10,10,10,32,18,40,0.00,0,,190
2013-11-9,64,54,43,47,43,38,86,71,52,30.23,30.09,29.97,10,10,10,22,14,,0.00,0,,145
2013-11-10,60,52,44,54,50,43,100,90,77,30.36,30.28,30.23,10,8,0,10,5,,0.00,7,Fog-Rain,131
2013-11-11,61,50,37,54,52,33,100,90,75,30.52,30.24,30.17,10,6,0,30,12,41,0.00,7,Fog,199
2013-11-12,42,34,25,32,16,8,82,52,25,30.83,30.73,30.56,10,10,10,32,21,39,0.00,2,,21
2013-11-13,51,36,21,18,16,13,75,46,26,30.71,30.50,30.25,10,10,10,22,12,,0.00,0,,189
2013-11-14,55,46,36,35,28,19,63,53,41,30.22,30.04,29.94,10,10,10,25,20,33,0.00,3,,181
2013-11-15,66,50,33,45,36,29,85,61,33,29.94,29.83,29.68,10,10,10,25,8,32,0.00,0,,184
2013-11-16,80,68,55,52,45,36,74,49,27,29.66,29.56,29.45,10,10,10,31,19,43,0.00,1,,198
2013-11-17,71,60,43,45,35,25,66,44,23,30.12,29.82,29.52,10,10,10,18,13,,0.00,0,,45
2013-11-18,60,48,36,33,27,21,64,44,24,30.28,30.21,30.13,10,10,10,10,8,,0.00,0,,57
2013-11-19,63,56,48,36,34,32,57,46,37,30.16,30.01,29.87,10,10,10,26,15,36,0.00,2,Rain,160
2013-11-20,66,59,52,55,48,34,81,68,50,29.86,29.81,29.75,10,10,10,30,22,34,0.00,2,,165
2013-11-21,66,47,28,59,41,19,97,83,63,30.47,30.09,29.84,10,10,5,33,21,41,0.00,6,,321
2013-11-22,28,26,25,23,21,16,88,78,66,30.64,30.56,30.48,10,9,5,32,25,41,0.06,8,Rain-Snow,360
2013-11-23,37,32,28,22,17,10,74,55,35,30.70,30.65,30.59,10,10,10,22,19,31,0.00,8,Rain,14
2013-11-24,30,26,23,23,21,16,96,85,56,30.69,30.53,30.32,10,6,0,16,9,,0.22,8,Fog-Snow,73
2013-11-25,33,28,24,29,26,21,100,92,80,30.29,30.23,30.16,10,6,0,15,10,,0.00,8,Fog-Rain-Snow,168
2013-11-26,46,37,27,28,24,21,85,67,39,30.48,30.35,30.25,10,10,10,24,13,33,0.00,0,,349
2013-11-27,39,30,21,27,21,14,85,68,50,30.50,30.40,30.27,10,10,10,17,8,,0.00,0,,199
2013-11-28,54,41,28,34,29,25,89,66,41,30.39,30.31,30.24,10,10,2,15,11,22,0.00,0,,187
2013-11-29,55,44,32,36,31,26,82,64,42,30.41,30.31,30.22,10,10,10,25,14,31,0.00,0,,180
2013-11-30,57,48,39,41,38,35,89,77,55,30.21,30.16,30.10,10,10,10,17,12,,0.00,0,,203